Regional Weather Roundup
Issued by NWS

Home | Current Version | Previous Version | Text Only | Print | Product List | Glossary Off
Versions: 1 2 3 4 5 6 7 8 9 10 11 12 13 14 15 16 17 18 19 20 21 22 23 24 25 26 27 28 29 30 31 32 33 34 35 36 37 38 39 40 41 42 43 44 45 46 47 48 49 50

000
ASUS43 KLMK 241002
RWRKY
KENTUCKY REGIONAL WEATHER ROUNDUP
NATIONAL WEATHER SERVICE LOUISVILLE KY
500 AM EST FRI NOV 24 2017

NOTE "FAIR" INDICATES FEW OR NO CLOUDS BELOW 12,000 FEET
WITH NO SIGNIFICANT WEATHER AND/OR OBSTRUCTIONS TO VISIBILITY.

KYZ001>023-026-027-061>063-070>075-241100-
WESTERN AND SOUTH CENTRAL KENTUCKY

CITY           SKY/WX    TMP DP  RH WIND       PRES   REMARKS
PADUCAH        CLOUDY    39  24  55 VRB3      29.96F
HENDERSON      CLOUDY    35  26  69 S7        29.96F WCI  29
OWENSBORO      CLOUDY    33  25  72 S7        29.98F WCI  27
HOPKINSVILLE   CLOUDY    32  24  73 SE3       29.99F
BOWLING GREEN  CLOUDY    27  25  92 CALM      30.01F
GLASGOW        NOT AVBL
$$

KYZ024-025-028>034-038-045-046-053-241100-
NORTH CENTRAL KENTUCKY

CITY           SKY/WX    TMP DP  RH WIND       PRES   REMARKS
LOUISVILLE/SDF CLOUDY    33  25  72 SE6       29.99F WCI  28
LOUISVILLE/LOU CLOUDY    32  28  85 CALM      30.00F
FORT KNOX      CLOUDY    31  24  75 SE3       29.97F
$$

KYZ035>037-039>044-047>052-055>060-089>105-241100-
NORTHEAST KENTUCKY

CITY           SKY/WX    TMP DP  RH WIND       PRES   REMARKS
LEXINGTON      CLOUDY    28  22  78 SE6       30.01S WCI  22
COVINGTON      CLEAR     30  25  81 S7        29.97F WCI  23
FRANKFORT      CLOUDY    27  22  81 CALM      29.99F
$$

KYZ054-064>069-076>088-106>120-241100-
SOUTHEAST KENTUCKY

CITY           SKY/WX    TMP DP  RH WIND       PRES   REMARKS
JACKSON        CLOUDY    33  21  61 SW3       30.01S
LONDON         CLOUDY    28  23  81 CALM      30.02S
SOMERSET       NOT AVBL
MIDDLESBORO    CLEAR     26  25  96 CALM      30.06S
MONTICELLO     CLOUDY    22  19  89 NE10      30.04F WCI  11
$$





USA.gov is the U.S. government's official web portal to all federal, state and local government web resources and services.